| time (UTC) | temp F | wind direction | speed MPH | gust MPH | rain 1hr in | rain 24hr in | rain mn in | humidity % | barometer mb |
| 20260903045459 | 68 | 54 | 3.0 | 4.0 | 0.00 | 1.75 | 0.00 | 99 | 679.9 |
| 20260903044529 | 68 | 57 | 3.0 | 4.0 | 0.00 | 1.75 | 0.00 | 99 | 679.9 |
| 20260903043501 | 68 | 54 | 3.0 | 4.0 | 0.00 | 1.75 | 0.00 | 99 | 679.9 |
| 20260903042530 | 68 | 56 | 3.0 | 3.0 | 0.00 | 1.75 | 0.00 | 99 | 679.9 |
| 20260903041447 | 68 | 54 | 3.0 | 3.0 | 0.00 | 1.75 | 0.00 | 99 | 679.9 |
| 20260903040447 | 68 | 52 | 3.0 | 3.0 | 0.00 | 1.75 | 0.00 | 99 | 679.9 |
| 20260903035530 | 69 | 53 | 4.0 | 5.0 | 0.00 | 1.75 | 1.75 | 99 | 679.9 |
| 20260903034550 | 69 | 54 | 3.0 | 4.0 | 0.00 | 1.75 | 1.75 | 99 | 679.9 |
| 20260903033448 | 69 | 53 | 3.0 | 4.0 | 0.00 | 1.75 | 1.75 | 99 | 679.9 |
| 20260903032610 | 69 | 50 | 3.0 | 3.0 | 0.00 | 1.75 | 1.75 | 99 | 679.9 |
| 20260903031551 | 69 | 38 | 2.0 | 3.0 | 0.00 | 1.75 | 1.75 | 99 | 679.9 |
| 20260903030531 | 69 | 50 | 3.0 | 4.0 | 0.00 | 1.75 | 1.75 | 99 | 679.9 |
| 20260903025501 | 69 | 52 | 4.0 | 5.0 | 0.03 | 1.75 | 1.75 | 99 | 679.9 |
| 20260903024530 | 69 | 50 | 4.0 | 4.0 | 0.14 | 1.75 | 1.75 | 99 | 679.9 |
| 20260903023531 | 69 | 55 | 2.0 | 3.0 | 0.23 | 1.75 | 1.75 | 99 | 679.9 |
| 20260903022501 | 69 | 51 | 3.0 | 5.0 | 0.24 | 1.75 | 1.75 | 99 | 679.9 |
| 20260903021516 | 69 | 44 | 2.0 | 2.0 | 0.35 | 1.75 | 1.75 | 99 | 679.9 |
| 20260903020502 | 69 | 93 | 2.0 | 3.0 | 0.35 | 1.75 | 1.75 | 99 | 679.9 |
| 20260903015450 | 69 | 109 | 3.0 | 9.0 | 0.32 | 1.72 | 1.72 | 99 | 679.9 |
| 20260903014517 | 69 | 56 | 5.0 | 7.0 | 0.20 | 1.61 | 1.61 | 99 | 679.9 |
| 20260903013502 | 70 | 43 | 3.0 | 5.0 | 0.12 | 1.52 | 1.52 | 99 | 679.9 |
| 20260903012502 | 70 | 350 | 4.0 | 7.0 | 0.11 | 1.52 | 1.52 | 99 | 679.9 |
| 20260903011510 | 70 | 51 | 4.0 | 4.0 | 0.01 | 1.40 | 1.40 | 99 | 679.9 |
| 20260903010502 | 70 | 52 | 3.0 | 4.0 | 0.02 | 1.40 | 1.40 | 99 | 679.9 |
| 20260903005510 | 0 | 0.0 | 0.0 | 0.04 | 1.40 | 1.40 | |||
| 20260903004450 | 0 | 0.0 | 0.0 | 0.05 | 1.40 | 1.40 | |||
| 20260903003543 | 70 | 29 | 2.0 | 3.0 | 0.05 | 1.40 | 1.40 | 99 | 679.9 |
| 20260903002523 | 70 | 13 | 4.0 | 5.0 | 0.05 | 1.40 | 1.40 | 99 | 679.9 |
| 20260903001503 | 70 | 31 | 3.0 | 3.0 | 0.04 | 1.40 | 1.40 | 99 | 679.9 |
| 20260903000518 | 70 | 46 | 4.0 | 5.0 | 0.03 | 1.39 | 1.39 | 99 | 679.9 |
| 20260902235541 | 70 | 39 | 3.0 | 4.0 | 0.01 | 1.36 | 1.36 | 99 | 679.9 |
| 20260902234518 | 70 | 25 | 3.0 | 3.0 | 0.00 | 1.35 | 1.35 | 99 | 679.9 |
| 20260902233451 | 70 | 28 | 3.0 | 3.0 | 0.00 | 1.35 | 1.35 | 99 | 680.0 |
| 20260902232516 | 70 | 35 | 3.0 | 3.0 | 0.00 | 1.35 | 1.35 | 99 | 680.0 |
| 20260902231533 | 70 | 43 | 3.0 | 4.0 | 0.00 | 1.35 | 1.35 | 99 | 680.0 |
| 20260902230524 | 0 | 0.0 | 0.0 | 0.00 | 1.35 | 1.35 | |||
| 20260902225516 | 70 | 43 | 3.0 | 3.0 | 0.06 | 1.35 | 1.35 | 99 | 680.0 |
| 20260902224517 | 70 | 38 | 3.0 | 4.0 | 0.48 | 1.35 | 1.35 | 99 | 680.0 |
| 20260902223517 | 70 | 45 | 4.0 | 6.0 | 0.80 | 1.35 | 1.35 | 99 | 680.0 |
| 20260902222504 | 70 | 33 | 4.0 | 7.0 | 0.88 | 1.35 | 1.35 | 99 | 680.0 |
| 20260902221453 | 70 | 48 | 6.0 | 8.0 | 0.88 | 1.35 | 1.35 | 99 | 680.0 |
| 20260902220504 | 70 | 47 | 3.0 | 7.0 | 0.88 | 1.35 | 1.35 | 99 | 680.0 |
| 20260902215504 | 70 | 85 | 6.0 | 9.0 | 0.82 | 1.29 | 1.29 | 99 | 680.0 |
| 20260902214505 | 71 | 196 | 6.0 | 12.0 | 0.40 | 0.88 | 0.88 | 99 | 680.0 |
| 20260902213518 | 73 | 171 | 5.0 | 9.0 | 0.08 | 0.56 | 0.56 | 99 | 680.0 |
| 20260902212505 | 76 | 204 | 6.0 | 12.0 | 0.00 | 0.47 | 0.47 | 99 | 680.1 |
| 20260902211538 | 77 | 9 | 2.0 | 3.0 | 0.10 | 0.47 | 0.47 | 99 | 680.1 |
| 20260902210538 | 77 | 358 | 3.0 | 5.0 | 0.46 | 0.47 | 0.47 | 99 | 680.1 |
| 20260902205518 | 78 | 359 | 2.0 | 4.0 | 0.46 | 0.47 | 0.47 | 99 | 680.1 |
| 20260902204519 | 77 | 341 | 2.0 | 3.0 | 0.46 | 0.47 | 0.47 | 99 | 680.1 |
| 20260902203530 | 76 | 354 | 2.0 | 3.0 | 0.46 | 0.47 | 0.47 | 99 | 680.1 |
| 20260902202506 | 78 | 8 | 4.0 | 6.0 | 0.45 | 0.47 | 0.47 | 99 | 680.1 |
| 20260902201519 | 82 | 15 | 8.0 | 14.0 | 0.36 | 0.38 | 0.38 | 99 | 680.2 |
| 20260902200519 | 84 | 5 | 3.0 | 5.0 | 0.00 | 0.01 | 0.01 | 99 | 680.3 |
| 20260902195520 | 84 | 15 | 4.0 | 6.0 | 0.00 | 0.01 | 0.01 | 99 | 680.3 |
| 20260902194519 | 84 | 359 | 3.0 | 7.0 | 0.00 | 0.01 | 0.01 | 99 | 680.3 |
| 20260902193507 | 84 | 339 | 2.0 | 4.0 | 0.00 | 0.01 | 0.01 | 99 | 680.3 |
| 20260902192539 | 84 | 330 | 2.0 | 3.0 | 0.00 | 0.01 | 0.01 | 99 | 680.2 |
| 20260902191507 | 84 | 316 | 2.0 | 3.0 | 0.00 | 0.01 | 0.01 | 99 | 680.2 |
| 20260902190525 | 83 | 326 | 1.0 | 2.0 | 0.00 | 0.01 | 0.01 | 99 | 680.2 |
| 20260902185507 | 83 | 334 | 1.0 | 3.0 | 0.00 | 0.01 | 0.01 | 99 | 680.2 |
| 20260902184542 | 83 | 335 | 1.0 | 2.0 | 0.00 | 0.01 | 0.01 | 99 | 680.2 |
| 20260902183541 | 82 | 352 | 1.0 | 2.0 | 0.01 | 0.01 | 0.01 | 99 | 680.2 |
| 20260902182507 | 82 | 122 | 2.0 | 4.0 | 0.01 | 0.01 | 0.01 | 99 | 680.2 |
| 20260902181507 | 82 | 44 | 1.0 | 3.0 | 0.01 | 0.01 | 0.01 | 99 | 680.2 |
| 20260902180507 | 0 | 0.0 | 0.0 | 0.01 | 0.01 | 0.01 | |||
| 20260902175508 | 82 | 0.0 | 0.0 | 0.01 | 0.01 | 0.01 | 99 | 680.2 | |
| 20260902174638 | 85 | 188 | 3.0 | 5.0 | 0.01 | 0.01 | 0.01 | 99 | 680.3 |
| 20260902173538 | 87 | 343 | 2.0 | 2.0 | 0.00 | 0.00 | 0.00 | 99 | 680.3 |
| 20260902172525 | 88 | 19 | 5.0 | 5.0 | 0.00 | 0.00 | 0.00 | 99 | 680.3 |
| 20260902171638 | 88 | 48 | 3.0 | 5.0 | 0.00 | 0.00 | 0.00 | 99 | 680.4 |
| 20260902170508 | 88 | 104 | 3.0 | 4.0 | 0.00 | 0.00 | 0.00 | 99 | 680.4 |
| 20260902165508 | 89 | 38 | 2.0 | 5.0 | 0.00 | 0.00 | 0.00 | 99 | 680.4 |
| 20260902164539 | 0 | 19 | 2.0 | 3.0 | 0.00 | 0.00 | 0.00 | ||
| 20260902163528 | 0 | 0.0 | 0.0 | 0.00 | 0.00 | 0.00 | |||
| 20260902162529 | 88 | 75 | 3.0 | 9.0 | 0.00 | 0.00 | 0.00 | 99 | 680.4 |
| 20260902161509 | 87 | 8 | 4.0 | 7.0 | 0.00 | 0.00 | 0.00 | 99 | 680.3 |
| 20260902160523 | 86 | 16 | 3.0 | 5.0 | 0.00 | 0.00 | 0.00 | 99 | 680.3 |
| 20260902155643 | 85 | 25 | 3.0 | 5.0 | 0.00 | 0.00 | 0.00 | 99 | 680.3 |
| 20260902154528 | 83 | 16 | 3.0 | 6.0 | 0.00 | 0.00 | 0.00 | 99 | 680.2 |
| 20260902153540 | 82 | 354 | 4.0 | 5.0 | 0.00 | 0.00 | 0.00 | 99 | 680.2 |
| 20260902152542 | 80 | 3 | 7.0 | 10.0 | 0.00 | 0.00 | 0.00 | 99 | 680.2 |
| 20260902151631 | 79 | 13 | 4.0 | 8.0 | 0.00 | 0.00 | 0.00 | 99 | 680.2 |
| 20260902150515 | 79 | 5 | 4.0 | 6.0 | 0.00 | 0.00 | 0.00 | 99 | 680.1 |
| 20260902145544 | 79 | 359 | 4.0 | 7.0 | 0.00 | 0.00 | 0.00 | 99 | 680.1 |
| 20260902144510 | 78 | 5 | 3.0 | 6.0 | 0.00 | 0.00 | 0.00 | 99 | 680.1 |
| 20260902143540 | 77 | 10 | 4.0 | 5.0 | 0.00 | 0.00 | 0.00 | 99 | 680.1 |
| 20260902142524 | 76 | 14 | 4.0 | 5.0 | 0.00 | 0.00 | 0.00 | 99 | 680.1 |
| 20260902141524 | 75 | 15 | 4.0 | 7.0 | 0.00 | 0.00 | 0.00 | 99 | 680.1 |
| 20260902140525 | 75 | 5 | 5.0 | 6.0 | 0.00 | 0.00 | 0.00 | 99 | 680.0 |
| 20260902135525 | 75 | 11 | 3.0 | 4.0 | 0.00 | 0.00 | 0.00 | 99 | 680.0 |
| 20260902134525 | 74 | 4 | 3.0 | 5.0 | 0.00 | 0.00 | 0.00 | 99 | 680.0 |
| 20260902133617 | 74 | 6 | 4.0 | 7.0 | 0.00 | 0.00 | 0.00 | 99 | 680.0 |
| 20260902132545 | 74 | 5 | 3.0 | 5.0 | 0.00 | 0.00 | 0.00 | 99 | 680.0 |
| 20260902131511 | 74 | 10 | 2.0 | 3.0 | 0.00 | 0.00 | 0.00 | 99 | 680.0 |
| 20260902130525 | 74 | 8 | 3.0 | 4.0 | 0.00 | 0.00 | 0.00 | 99 | 680.0 |
| 20260902125525 | 74 | 13 | 3.0 | 4.0 | 0.00 | 0.00 | 0.00 | 99 | 680.0 |
| 20260902124526 | 73 | 20 | 2.0 | 3.0 | 0.00 | 0.00 | 0.00 | 99 | 680.0 |
| 20260902123526 | 73 | 21 | 2.0 | 3.0 | 0.00 | 0.00 | 0.00 | 99 | 680.0 |
| 20260902122546 | 73 | 7 | 3.0 | 4.0 | 0.00 | 0.00 | 0.00 | 99 | 680.0 |
| 20260902121526 | 73 | 3 | 1.0 | 3.0 | 0.00 | 0.00 | 0.00 | 99 | 680.0 |
| 20260902120547 | 73 | 19 | 2.0 | 4.0 | 0.00 | 0.00 | 0.00 | 99 | 680.0 |
| 20260902115512 | 73 | 28 | 1.0 | 3.0 | 0.00 | 0.00 | 0.00 | 99 | 680.0 |
| 20260902114513 | 73 | 26 | 1.0 | 2.0 | 0.00 | 0.00 | 0.00 | 99 | 680.0 |
| 20260902113512 | 73 | 24 | 2.0 | 3.0 | 0.00 | 0.00 | 0.00 | 99 | 680.0 |
| 20260902112527 | 73 | 25 | 2.0 | 3.0 | 0.00 | 0.00 | 0.00 | 99 | 680.0 |
| 20260902111527 | 73 | 40 | 0.0 | 2.0 | 0.00 | 0.00 | 0.00 | 99 | 680.0 |
| 20260902110608 | 73 | 28 | 1.0 | 2.0 | 0.00 | 0.00 | 0.00 | 99 | 680.0 |
| 20260902105533 | 73 | 60 | 1.0 | 3.0 | 0.00 | 0.00 | 0.00 | 99 | 680.0 |
| 20260902104513 | 73 | 40 | 2.0 | 4.0 | 0.00 | 0.00 | 0.00 | 99 | 680.0 |
| 20260902103513 | 73 | 130 | 2.0 | 4.0 | 0.00 | 0.00 | 0.00 | 99 | 680.0 |
| 20260902102548 | 73 | 66 | 2.0 | 3.0 | 0.00 | 0.00 | 0.00 | 99 | 680.0 |
| 20260902101528 | 73 | 63 | 1.0 | 3.0 | 0.00 | 0.00 | 0.00 | 99 | 680.0 |
| 20260902100528 | 73 | 55 | 1.0 | 3.0 | 0.00 | 0.00 | 0.00 | 99 | 680.0 |
| 20260902095514 | 73 | 72 | 2.0 | 5.0 | 0.00 | 0.00 | 0.00 | 99 | 680.0 |
| 20260902094528 | 73 | 70 | 1.0 | 3.0 | 0.00 | 0.00 | 0.00 | 99 | 680.0 |
| 20260902093528 | 73 | 91 | 1.0 | 2.0 | 0.00 | 0.00 | 0.00 | 99 | 680.0 |
| 20260902092549 | 74 | 91 | 1.0 | 3.0 | 0.00 | 0.00 | 0.00 | 99 | 680.0 |
| 20260902091549 | 74 | 65 | 1.0 | 3.0 | 0.00 | 0.00 | 0.00 | 99 | 680.0 |
| 20260902090515 | 74 | 56 | 1.0 | 3.0 | 0.00 | 0.00 | 0.00 | 99 | 680.0 |
| 20260902085515 | 73 | 35 | 2.0 | 3.0 | 0.00 | 0.00 | 0.00 | 99 | 680.0 |
| 20260902084515 | 74 | 12 | 2.0 | 3.0 | 0.00 | 0.00 | 0.00 | 99 | 680.0 |
| 20260902083529 | 74 | 341 | 0.0 | 1.0 | 0.00 | 0.00 | 0.00 | 99 | 680.0 |
| 20260902082515 | 74 | 18 | 1.0 | 2.0 | 0.00 | 0.00 | 0.00 | 99 | 680.0 |
| 20260902081530 | 74 | 14 | 1.0 | 3.0 | 0.00 | 0.00 | 0.00 | 99 | 680.0 |
| 20260902080550 | 73 | 30 | 1.0 | 2.0 | 0.00 | 0.00 | 0.00 | 99 | 680.0 |
| 20260902075516 | 74 | 14 | 1.0 | 2.0 | 0.00 | 0.00 | 0.00 | 99 | 680.0 |
| 20260902074516 | 74 | 10 | 1.0 | 2.0 | 0.00 | 0.00 | 0.00 | 99 | 680.0 |
| 20260902073516 | 74 | 15 | 1.0 | 2.0 | 0.00 | 0.00 | 0.00 | 99 | 680.0 |
| 20260902072516 | 74 | 5 | 1.0 | 2.0 | 0.00 | 0.00 | 0.00 | 99 | 680.0 |
| 20260902071516 | 74 | 18 | 1.0 | 3.0 | 0.00 | 0.00 | 0.00 | 99 | 680.0 |
| 20260902070517 | 74 | 17 | 2.0 | 3.0 | 0.00 | 0.00 | 0.00 | 99 | 680.0 |
| 20260902065537 | 74 | 16 | 2.0 | 3.0 | 0.00 | 0.00 | 0.00 | 99 | 680.0 |
| 20260902064517 | 74 | 22 | 1.0 | 2.0 | 0.00 | 0.00 | 0.00 | 99 | 680.0 |
| 20260902063517 | 74 | 35 | 0.0 | 2.0 | 0.00 | 0.00 | 0.00 | 99 | 680.0 |
| 20260902062517 | 74 | 10 | 1.0 | 3.0 | 0.00 | 0.00 | 0.00 | 99 | 680.0 |
| 20260902061517 | 74 | 14 | 1.0 | 2.0 | 0.00 | 0.00 | 0.00 | 99 | 680.0 |
| 20260902060517 | 74 | 16 | 1.0 | 2.0 | 0.00 | 0.00 | 0.00 | 99 | 680.0 |
| 20260902055555 | 74 | 21 | 0.0 | 1.0 | 0.00 | 0.00 | 0.00 | 99 | 680.0 |
| 20260902054517 | 74 | 4 | 0.0 | 1.0 | 0.00 | 0.00 | 0.00 | 99 | 680.0 |
| 20260902053608 | 74 | 40 | 0.0 | 1.0 | 0.00 | 0.00 | 0.00 | 99 | 680.0 |
| 20260902052538 | 75 | 65 | 1.0 | 3.0 | 0.00 | 0.00 | 0.00 | 99 | 680.0 |
| 20260902051518 | 75 | 68 | 0.0 | 3.0 | 0.00 | 0.00 | 0.00 | 99 | 680.0 |
| 20260902050518 | 74 | 86 | 1.0 | 4.0 | 0.00 | 0.00 | 0.00 | 99 | 680.0 |